LXP312 SCCI-SCTE

Flight info

Callsign LXP312
Flight time N/A
Altitude 34000
Route SIRUN4A SIRUN UQ802 CAUKE CAUKE5B
Aircraft A320/M-SDE3FGHIRWY/LB1

Departure

Time N/A
Airport President Carlos Ibáñez International Airport (SCCI)

Arrival

Time 2026-04-20 23:40
Airport El Tepual International Airport (SCTE)
Time Latitude Longitude Altitude Speed Heading
2026-04-20 23:05 -44.04972 -73.38539 34204 ft 458 kts
2026-04-20 23:06 -43.98624 -73.37450 34233 ft 458 kts
2026-04-20 23:06 -43.92269 -73.36858 34215 ft 458 kts
2026-04-20 23:07 -43.85888 -73.36280 34201 ft 460 kts
2026-04-20 23:07 -43.79506 -73.35545 34203 ft 461 kts
2026-04-20 23:08 -43.73205 -73.34743 34207 ft 461 kts
2026-04-20 23:08 -43.66810 -73.33941 34208 ft 462 kts
2026-04-20 23:09 -43.60395 -73.33169 34206 ft 462 kts
2026-04-20 23:09 -43.53978 -73.32423 34210 ft 462 kts
2026-04-20 23:10 -43.47562 -73.31665 34209 ft 463 kts
2026-04-20 23:10 -43.41182 -73.30898 34214 ft 463 kts
2026-04-20 23:11 -43.34754 -73.30140 34220 ft 464 kts
2026-04-20 23:11 -43.28310 -73.29376 34230 ft 464 kts
2026-04-20 23:12 -43.21864 -73.28606 34227 ft 465 kts
2026-04-20 23:12 -43.15414 -73.27846 34125 ft 467 kts
2026-04-20 23:13 -43.12163 -73.27473 33872 ft 467 kts
2026-04-20 23:13 -43.08948 -73.27122 33626 ft 467 kts
2026-04-20 23:13 -43.05762 -73.26790 33379 ft 468 kts
2026-04-20 23:13 -43.02514 -73.26458 33129 ft 469 kts
2026-04-20 23:14 -42.99245 -73.26124 32878 ft 471 kts
2026-04-20 23:14 -42.95960 -73.25785 32628 ft 472 kts
2026-04-20 23:14 -42.92680 -73.25442 32377 ft 473 kts
2026-04-20 23:14 -42.89397 -73.25095 32127 ft 474 kts
2026-04-20 23:15 -42.86106 -73.24745 31877 ft 475 kts
2026-04-20 23:15 -42.82807 -73.24394 31626 ft 476 kts
2026-04-20 23:15 -42.79501 -73.24042 31378 ft 477 kts
2026-04-20 23:15 -42.76196 -73.23693 31129 ft 478 kts
2026-04-20 23:16 -42.72880 -73.23343 30512 ft 478 kts
2026-04-20 23:16 -42.69567 -73.22997 29829 ft 475 kts
2026-04-20 23:16 -42.66319 -73.22662 29172 ft 472 kts
2026-04-20 23:16 -42.63057 -73.22325 28501 ft 468 kts
2026-04-20 23:17 -42.59819 -73.21990 27855 ft 465 kts
2026-04-20 23:17 -42.56640 -73.21659 27212 ft 462 kts
2026-04-20 23:17 -42.53429 -73.21321 26570 ft 458 kts
2026-04-20 23:17 -42.50248 -73.20986 25934 ft 454 kts
2026-04-20 23:18 -42.47127 -73.20661 25312 ft 451 kts
2026-04-20 23:18 -42.44007 -73.20338 24702 ft 447 kts
2026-04-20 23:18 -42.40911 -73.20239 24093 ft 440 kts 358°
2026-04-20 23:18 -42.37942 -73.20358 23526 ft 423 kts 358°
2026-04-20 23:19 -42.35058 -73.20471 23000 ft 407 kts 358°
2026-04-20 23:19 -42.32269 -73.20580 22513 ft 399 kts 358°
2026-04-20 23:19 -42.29503 -73.20690 22035 ft 396 kts 358°
2026-04-20 23:19 -42.26759 -73.20802 21570 ft 393 kts 358°
2026-04-20 23:20 -42.24030 -73.20915 21117 ft 392 kts 358°
2026-04-20 23:20 -42.21346 -73.21024 20668 ft 389 kts 358°
2026-04-20 23:20 -42.18652 -73.21129 20206 ft 386 kts 358°
2026-04-20 23:20 -42.15985 -73.21230 19748 ft 383 kts 358°
2026-04-20 23:21 -42.13330 -73.21332 19279 ft 380 kts 358°
2026-04-20 23:21 -42.10687 -73.21433 18816 ft 378 kts 358°
2026-04-20 23:21 -42.08059 -73.21534 18329 ft 376 kts 358°
2026-04-20 23:21 -42.05450 -73.21639 17859 ft 374 kts 358°
2026-04-20 23:22 -42.02853 -73.21743 17369 ft 372 kts 358°
2026-04-20 23:22 -42.01135 -73.21810 17048 ft 371 kts 358°
2026-04-20 23:22 -41.98551 -73.21910 16562 ft 370 kts 358°
2026-04-20 23:22 -41.95983 -73.22009 16080 ft 368 kts 359°
2026-04-20 23:23 -41.92596 -73.22139 15436 ft 366 kts 359°
2026-04-20 23:23 -41.90874 -73.22204 15108 ft 365 kts 359°
2026-04-20 23:23 -41.88346 -73.22299 14620 ft 363 kts 358°
2026-04-20 23:23 -41.85824 -73.22397 14129 ft 362 kts 358°
2026-04-20 23:24 -41.83322 -73.22621 13646 ft 359 kts 348°
2026-04-20 23:24 -41.81000 -73.23629 13177 ft 355 kts 338°
2026-04-20 23:24 -41.78707 -73.24843 12695 ft 353 kts 338°
2026-04-20 23:24 -41.76436 -73.26060 12232 ft 350 kts 338°
2026-04-20 23:25 -41.74182 -73.27267 11763 ft 347 kts 338°
2026-04-20 23:25 -41.71948 -73.28458 11295 ft 344 kts 338°
2026-04-20 23:25 -41.68987 -73.30028 10655 ft 340 kts 338°
2026-04-20 23:25 -41.67544 -73.30791 10488 ft 334 kts 338°
2026-04-20 23:26 -41.65414 -73.31913 10274 ft 319 kts 338°
2026-04-20 23:26 -41.63422 -73.32958 10104 ft 297 kts 338°
2026-04-20 23:26 -41.61529 -73.33948 9686 ft 290 kts 338°
2026-04-20 23:26 -41.59662 -73.34925 9386 ft 286 kts 338°
2026-04-20 23:27 -41.57757 -73.35640 9048 ft 285 kts 355°
2026-04-20 23:27 -41.55786 -73.35465 8684 ft 284 kts
2026-04-20 23:27 -41.53834 -73.35087 8303 ft 283 kts
2026-04-20 23:27 -41.51893 -73.34694 7930 ft 281 kts
2026-04-20 23:28 -41.49963 -73.34307 7549 ft 280 kts
2026-04-20 23:28 -41.48042 -73.33924 7173 ft 278 kts
2026-04-20 23:28 -41.46153 -73.33551 6782 ft 277 kts
2026-04-20 23:28 -41.44250 -73.33178 6392 ft 276 kts
2026-04-20 23:29 -41.42355 -73.32809 5991 ft 274 kts
2026-04-20 23:29 -41.40470 -73.32446 5604 ft 273 kts
2026-04-20 23:29 -41.38596 -73.32087 5209 ft 272 kts
2026-04-20 23:29 -41.36735 -73.31732 4826 ft 270 kts
2026-04-20 23:30 -41.34876 -73.31378 4451 ft 269 kts
2026-04-20 23:30 -41.33032 -73.31029 4083 ft 267 kts
2026-04-20 23:30 -41.31206 -73.30688 4009 ft 266 kts
2026-04-20 23:30 -41.29367 -73.30385 4012 ft 264 kts
2026-04-20 23:31 -41.27650 -73.30849 4004 ft 244 kts 336°
2026-04-20 23:31 -41.26157 -73.31763 4008 ft 229 kts 333°
2026-04-20 23:31 -41.24748 -73.32688 4013 ft 225 kts 332°
2026-04-20 23:31 -41.23345 -73.33610 4006 ft 225 kts 335°
2026-04-20 23:32 -41.21820 -73.33947 4014 ft 226 kts
2026-04-20 23:32 -41.20400 -73.33130 3890 ft 225 kts 41°
2026-04-20 23:32 -41.19554 -73.31436 3589 ft 223 kts 76°
2026-04-20 23:32 -41.19574 -73.29419 3297 ft 220 kts 111°
2026-04-20 23:33 -41.20297 -73.27647 2969 ft 220 kts 125°
2026-04-20 23:33 -41.21160 -73.26011 2698 ft 220 kts 127°
2026-04-20 23:33 -41.22049 -73.24390 2568 ft 214 kts 127°
2026-04-20 23:33 -41.22919 -73.22821 2435 ft 208 kts 127°
2026-04-20 23:34 -41.23768 -73.21300 2316 ft 202 kts 127°
2026-04-20 23:34 -41.24765 -73.20042 2204 ft 194 kts 146°
2026-04-20 23:34 -41.25842 -73.19054 2085 ft 182 kts 146°
2026-04-20 23:34 -41.26860 -73.18119 1950 ft 174 kts 145°
2026-04-20 23:35 -41.27833 -73.17226 1819 ft 166 kts 145°
2026-04-20 23:35 -41.29644 -73.15558 1639 ft 151 kts 145°
2026-04-20 23:35 -41.30481 -73.14746 1612 ft 148 kts 143°
2026-04-20 23:36 -41.31299 -73.13911 1618 ft 148 kts 142°
2026-04-20 23:36 -41.32108 -73.13079 1627 ft 147 kts 142°
2026-04-20 23:36 -41.32925 -73.12241 1617 ft 148 kts 142°
2026-04-20 23:36 -41.33738 -73.11406 1612 ft 147 kts 142°
2026-04-20 23:37 -41.34552 -73.10572 1614 ft 148 kts 142°
2026-04-20 23:37 -41.35370 -73.09736 1608 ft 148 kts 143°
2026-04-20 23:37 -41.36302 -73.09183 1595 ft 149 kts 170°
2026-04-20 23:37 -41.37339 -73.09158 1376 ft 149 kts 182°
2026-04-20 23:38 -41.38372 -73.09198 1162 ft 148 kts 182°
2026-04-20 23:38 -41.39395 -73.09236 959 ft 147 kts 182°
2026-04-20 23:38 -41.40414 -73.09275 763 ft 146 kts 182°
2026-04-20 23:38 -41.41426 -73.09312 567 ft 145 kts 182°
2026-04-20 23:39 -41.41536 -73.09316 546 ft 145 kts 182°
2026-04-20 23:39 -41.41771 -73.09325 499 ft 145 kts 182°
2026-04-20 23:39 -41.42774 -73.09354 407 ft 143 kts 180°
2026-04-20 23:40 -41.43713 -73.09380 311 ft 129 kts 177°
2026-04-20 23:40 -41.44480 -73.09417 287 ft 73 kts 181°
2026-04-20 23:40 -41.44728 -73.09418 299 ft 26 kts 180°
2026-04-20 23:40 -41.44892 -73.09425 305 ft 18 kts 182°
2026-04-20 23:41 -41.44989 -73.09429 309 ft 8 kts 182°
2026-04-20 23:41 -41.45022 -73.09431 310 ft 2 kts 185°
2026-04-20 23:41 -41.45027 -73.09432 310 ft 0 kts 189°
2026-04-20 23:42 -41.45041 -73.09438 311 ft 5 kts 202°
2026-04-20 23:42 -41.45057 -73.09459 311 ft 2 kts 232°
2026-04-20 23:42 -41.45063 -73.09478 312 ft 2 kts 251°
2026-04-20 23:42 -41.45067 -73.09508 310 ft 2 kts 263°
2026-04-20 23:43 -41.45071 -73.09558 308 ft 7 kts 263°
2026-04-20 23:43 -41.45068 -73.09637 304 ft 9 kts 303°
2026-04-20 23:43 -41.45016 -73.09661 303 ft 8 kts
2026-04-20 23:43 -41.44966 -73.09656 302 ft 7 kts
2026-04-20 23:44 -41.44922 -73.09653 302 ft 6 kts
2026-04-20 23:44 -41.44882 -73.09651 304 ft 5 kts
2026-04-20 23:44 -41.44836 -73.09649 301 ft 12 kts
2026-04-20 23:44 -41.44738 -73.09646 303 ft 15 kts
2026-04-20 23:45 -41.44632 -73.09643 303 ft 16 kts
2026-04-20 23:45 -41.44514 -73.09639 303 ft 18 kts
2026-04-20 23:45 -41.44381 -73.09634 300 ft 19 kts
2026-04-20 23:45 -41.44255 -73.09629 299 ft 17 kts
2026-04-20 23:46 -41.44134 -73.09624 300 ft 18 kts
2026-04-20 23:46 -41.44005 -73.09621 302 ft 19 kts
2026-04-20 23:46 -41.43864 -73.09616 302 ft 21 kts
2026-04-20 23:46 -41.43731 -73.09611 302 ft 19 kts
2026-04-20 23:47 -41.43609 -73.09607 301 ft 17 kts
2026-04-20 23:47 -41.43499 -73.09603 304 ft 14 kts
2026-04-20 23:47 -41.43411 -73.09599 304 ft 11 kts
2026-04-20 23:47 -41.43357 -73.09598 302 ft 4 kts
2026-04-20 23:48 -41.43336 -73.09597 304 ft 3 kts
2026-04-20 23:48 -41.43320 -73.09596 304 ft 2 kts
2026-04-20 23:48 -41.43306 -73.09598 302 ft 4 kts 350°
2026-04-20 23:48 -41.43296 -73.09627 304 ft 3 kts 272°
2026-04-20 23:49 -41.43296 -73.09656 301 ft 3 kts 271°
2026-04-20 23:49 -41.43295 -73.09680 301 ft 2 kts 271°
2026-04-20 23:49 -41.43295 -73.09698 301 ft 2 kts 271°
2026-04-20 23:49 -41.43295 -73.09712 301 ft 1 kts 271°
2026-04-20 23:50 -41.43295 -73.09721 303 ft 1 kts 271°
2026-04-20 23:50 -41.43295 -73.09730 301 ft 1 kts 271°
2026-04-20 23:50 -41.43294 -73.09741 303 ft 0 kts 271°
2026-04-20 23:50 -41.43294 -73.09748 301 ft 0 kts 271°